Regional Weather Roundup
Issued by NWS State College, PA

Home | Current Version | Previous Version | Text Only | Print | Product List | Glossary Off
Versions: 1 2 3 4 5 6 7 8 9 10 11 12 13 14 15 16 17 18 19 20 21 22 23 24 25 26 27 28 29 30 31 32 33 34 35 36 37 38 39 40 41 42 43 44 45 46 47 48 49 50

000
ASUS41 KCTP 200303
RWRCTP

REGIONAL WEATHER ROUNDUP
NATIONAL WEATHER SERVICE STATE COLLEGE PA
1000 PM EST SUN FEB 19 2017

Note: "fair" indicates few or no clouds below 12,000 feet with no
significant weather and/or obstructions to visibility.

* = STATION THAT DOES NOT REPORT PRECIPITATION /E.G. RAIN...SNOW...ETC/
    THUNDER OR FOG.

PAZ002>004-007>009-013>016-020>023-029>032-200400-
WESTERN PENNSYLVANIA

CITY           SKY/WX    TMP DP  RH WIND       PRES   REMARKS
ERIE           CLEAR     38  32  79 S3        30.14R
MEADVILLE      CLEAR     42  32  67 N5        30.12R
FRANKLIN*      CLEAR     45  30  57 CALM      30.13R
NEW CASTLE     FAIR      43  30  60 CALM      30.13R
BEAVER COUNTY  NOT AVBL
BUTLER*        CLEAR     45  27  49 CALM      30.13R
PITTSBURGH INT PTCLDY    50  38  63 W5        30.12R
PITTSBURGH     CLEAR     50  41  71 SW9       30.13R
INDIANA*       PTCLDY    45  32  61 CALM      30.13R
LATROBE        CLEAR     46  43  87 SW7       30.14R
WASHINGTON CO* CLEAR     46  43  87 SW7       30.16R
$$

PAZ004>006-010>012-017>019-024>028-033>037-041-042-045-046-049>053-200400-
CENTRAL PENNSYLVANIA

CITY           SKY/WX    TMP DP  RH WIND       PRES   REMARKS
BRADFORD       CLEAR     40  33  76 NW8       30.07S
DUBOIS         CLEAR     45  28  51 NW5       30.08R
CLEARFIELD       N/A    N/A N/A N/A MISG      30.08R
JOHNSTOWN      CLEAR     46  43  89 W13       30.09R
ALTOONA        CLEAR     48  41  76 W8        30.08R
STATE COLLEGE  NOT AVBL
WILLIAMSPORT   CLEAR     48  27  44 NW8       30.03R
SELINSGROVE    CLEAR     40  34  79 NW6       30.02R
FT INDIANTOWN  CLEAR     59  31  33 W8        30.00R
CAPITAL CITY   CLEAR     54  34  46 W8        30.02R
HARRISBURG     CLEAR     55  36  48 NW10      30.01R
YORK           CLEAR     43  35  73 NW3       30.02R
$$

PAZ038>040-043-044-047-048-054-055-060>062-067>071-200400-
EASTERN PENNSYLVANIA

CITY           SKY/WX    TMP DP  RH WIND       PRES   REMARKS
SCRANTON       CLEAR     51  31  46 W3        30.01R
MOUNT POCONO   CLEAR     45  29  53 NW8       29.97R
ALLENTOWN      CLEAR     53  35  50 NW5       29.98R
QUAKERTOWN*    CLEAR     50  36  57 NW5       29.98R
READING        CLEAR     52  36  54 NW12      29.98R
LANCASTER      CLEAR     52  36  54 W10       29.99R
COATESVILLE    CLEAR     54  34  47 NW9       30.00R
POTTSTOWN      CLEAR     54  33  45 VRB3      29.99R
BLUE BELL      CLEAR     54  34  47 CALM      29.97R
DOYLESTOWN     CLEAR     53  32  44 N3        29.97R
WILLOW GROVE   NOT AVBL
NORTH PHILA    CLEAR     57  35  43 W8        29.98R
PHILADELPHIA   CLEAR     59  33  37 W9        29.97R
$$




USA.gov is the U.S. government's official web portal to all federal, state and local government web resources and services.